Home > Weather > Kobe > Past weeks

Flag for Japan Weather for the Past 2 Weeks in Kobe, Japan

Now
77 °F

Sunny.


Feels Like: 78 °F
Forecast: 60 / 73 °F
Wind: 3 mph from North

Location: Osaka International Airport

Current Time: May 2, 2016 at 11:31:27 AM

Latest Report: May 2, 2016 at 11:00 AM


Visibility: 10 mi

Pressure: 30.09 "Hg

Humidity: 39%

Dew Point: 50 °F

Location of KobeLocation

Historic Weather in Kobe — Graph

°F

Kobe Temperature Yesterday

Maximum temperature yesterday: 77 °F (at 2:00 PM)
Minimum temperature yesterday: 54 °F (at 5:00 AM)
Average temperature yesterday: 69 °F

High & Low Weather Summary for the Past Weeks

 TemperatureHumidityPressure
High81 °F (Apr 26, 3:00 PM)100% (Apr 22, 6:00 AM)30.27 "Hg (Apr 22, 6:00 AM)
Low43 °F (Apr 30, 5:00 AM)15% (Apr 20, 1:00 PM)29.42 "Hg (Apr 28, 11:49 AM)
Average64 °F58%29.89 "Hg
* Reported Apr 17 10:00 AM — May 2 10:00 AM, Kobe, Weather by CustomWeather, © 2016

Note: Actual official high and low records may vary slightly from our data, if they occured in-between our weather recording intervals... More about our weather records

Advertising

Kobe Weather History for the Previous 24 Hours

Scroll right to see more
 ConditionsComfort  
Time TempWeatherWind HumidityBarometerVisibility
10:00 AM
Mon, May 2
73 °FSunny.1 mph47%30.09 "Hg10 mi
9:00 AM68 °FSunny.2 mph46%30.09 "Hg10 mi
8:00 AM66 °FSunny.6 mph49%30.12 "Hg10 mi
7:00 AM61 °FSunny.No wind59%30.12 "Hg10 mi
6:00 AM55 °FSunny.1 mph72%30.09 "Hg10 mi
5:00 AM55 °FClear.3 mph72%30.09 "Hg10 mi
8:00 PM
Sun, May 1
68 °FClear.6 mph56%30.01 "Hg10 mi
7:00 PM70 °FPassing clouds.3 mph46%30.01 "HgN/A
6:00 PM72 °FPassing clouds.3 mph36%29.98 "HgN/A
5:00 PM73 °FPartly sunny.7 mph38%29.98 "HgN/A
4:00 PM75 °FPartly sunny.7 mph39%29.98 "HgN/A
3:00 PM75 °FPartly sunny.6 mph39%29.95 "HgN/A
2:00 PM77 °FPartly sunny.12 mph36%29.95 "HgN/A
1:00 PM75 °FScattered clouds.9 mph41%29.98 "HgN/A
12:00 PM73 °FPassing clouds.10 mph44%29.98 "HgN/A
11:00 AM72 °FPassing clouds.8 mph44%30.01 "HgN/A
Weather by CustomWeather, © 2016

See weather overviewHow to use our weather pages